Terug naar catalogus

WIND

ActiefWetenschapLPO
NORAD 23333·PAYLOAD·🇺🇸 United States

Gelanceerd Nov 1, 1994 vanaf Cape Canaveral Space Force Station

Loading…

TLE

VerouderdSource: Space-Track

Epoch: Nov 1, 1994, 11:59 UTC

1 23333U 94071  A 94305.49999999 -.00172956 +26967-3 +10000-3 0  9991
2 23333 028.7490 002.3720 9728298 030.4360 001.3500 00.07309491000070

Volg WIND in realtime met AllMySat

Download on the App Store